Weather History for S. Maria di Leuca, Italy

Change the Weather History Date:

Wednesday, December 12, 2012

  Actual Average (LIBN) Record (LIBN)
Temperature  
Mean Temperature 44 °F -  
Max Temperature 49 °F 56 °F 62 °F (2000)
Min Temperature 40 °F 47 °F 32 °F (2010)
Degree Days  
Heating Degree Days 20    
Moisture  
Dew Point 34 °F    
Average Humidity 70    
Maximum Humidity 81    
Minimum Humidity 37    
Precipitation  
Precipitation 0.00 in 0.11 in - ()
Sea Level Pressure  
Sea Level Pressure 30.03 in    
Wind  
Wind Speed 11 mph ()    
Max Wind Speed 15 mph    
Max Gust Speed -    
Visibility 6.9 miles    
Events      
Averages and records for this station are not official NWS values.
T = Trace of Precipitation, MM = Missing Value Source: Averaged Metar Reports

Daily Weather History Graph

Daily Weather History Graph

Search for Another Location

Airport:

Trip Planner

Search our weather history database for the weather conditions in past years. The results will help you decide how hot, cold, wet, or windy it might be!

Date:

Astronomy

Dec. 12, 2012 Rise Set
Actual Time 6:58 AM CET 4:22 PM CET
Civil Twilight 6:28 AM CET 4:52 PM CET
Nautical Twilight 5:54 AM CET 5:26 PM CET
Astronomical Twilight 5:21 AM CET 5:59 PM CET
Moon 5:42 AM CET (12/12) 3:41 PM CET (12/12)
Length of Visible Light 10h 24m
Length of Day
9h 23m
Waning Crescent, 1% of the Moon is Illuminated
Dec 12
Waning Crescent
Dec 13
New
Dec 20
First Quarter
Dec 28
Full
Jan 5
Last Quarter

Hourly Weather History & Observations

Time (CET) Temp. Windchill Dew Point Humidity Pressure Visibility Wind Dir Wind Speed Gust Speed Precip Events Conditions
12:55 AM 42.8 °F 36.2 °F 35.6 °F 76% 29.92 in - NNW 12.7 mph - N/A   Clear
1:00 AM 42 °F - 35 °F 67% 29.94 in 6 mi NNW 12.7 mph - -  
1:55 AM 41.0 °F 34.3 °F 35.6 °F 81% 29.92 in - North 11.5 mph - N/A   Clear
2:55 AM 41.0 °F 33.5 °F 33.8 °F 76% 29.92 in - NNW 13.8 mph - N/A   Clear
3:55 AM 41.0 °F 33.9 °F 33.8 °F 76% 29.92 in - NNW 12.7 mph - N/A   Clear
4:55 AM 41.0 °F 33.9 °F 35.6 °F 81% 29.92 in - NNW 12.7 mph - N/A   Clear
5:55 AM 41.0 °F 33.9 °F 35.6 °F 81% 29.92 in - NNW 12.7 mph - N/A   Clear
6:55 AM 41.0 °F 33.5 °F 35.6 °F 81% 29.95 in 6.2 mi NNW 13.8 mph - N/A   Partly Cloudy
7:00 AM 41 °F - 35 °F 73% 29.98 in 6 mi NNW 13.8 mph - -   Scattered Clouds
7:55 AM 41.0 °F 33.9 °F 35.6 °F 81% 29.98 in 6.2 mi NNW 12.7 mph - N/A   Partly Cloudy
8:55 AM 42.8 °F 37.0 °F 35.6 °F 76% 30.01 in 6.2 mi North 10.4 mph - N/A   Scattered Clouds
9:55 AM 44.6 °F 38.4 °F 35.6 °F 71% 30.04 in 6.2 mi NNE 12.7 mph - N/A   Partly Cloudy
10:55 AM 44.6 °F 39.2 °F 35.6 °F 71% 30.04 in 6.2 mi NNE 10.4 mph - N/A   Partly Cloudy
12:55 PM 48.2 °F - 30.2 °F 50% 30.04 in 6.2 mi NNE 10.4 mph - N/A   Partly Cloudy
1:00 PM 49 °F - 31 °F 37% 30.06 in 12 mi NNE 10.4 mph - -   Scattered Clouds
1:55 PM 48.2 °F - 30.2 °F 50% 30.04 in 6.2 mi North 11.5 mph - N/A   Scattered Clouds
2:55 PM 48.2 °F - 26.6 °F 43% 30.04 in 6.2 mi NNE 11.5 mph - N/A   Scattered Clouds
3:55 PM 48.2 °F - 32.0 °F 54% 30.06 in 6.2 mi North 10.4 mph - N/A   Partly Cloudy
4:55 PM 46.4 °F 40.7 °F 35.6 °F 66% 30.09 in 6.2 mi NNE 12.7 mph - N/A   Partly Cloudy
5:55 PM 44.6 °F 38.8 °F 35.6 °F 71% 30.09 in 6.2 mi North 11.5 mph - N/A   Partly Cloudy
6:55 PM 41.0 °F 33.1 °F 33.8 °F 76% 30.12 in - NNE 15.0 mph - N/A   Clear
7:00 PM 42 °F - 33 °F 62% 30.14 in 12 mi NNE 15.0 mph - -  
7:55 PM 41.0 °F 33.9 °F 35.6 °F 81% 30.12 in - NNW 12.7 mph - N/A   Clear
8:55 PM 41.0 °F 33.9 °F 35.6 °F 81% 30.12 in - NNW 12.7 mph - N/A   Clear
9:55 PM 41.0 °F 33.9 °F 33.8 °F 76% 30.15 in - NNW 12.7 mph - N/A   Clear
10:55 PM 41.0 °F 34.3 °F 32.0 °F 70% 30.15 in - NNW 11.5 mph - N/A   Clear
11:55 PM 41.0 °F 34.3 °F 33.8 °F 76% 30.15 in - NNW 11.5 mph - N/A   Clear